This is the latest recevied weather packets stored in our database for station/object F5MAP-5. If no packets are shown the sender has not sent any weather packets the latest 10 day(s).
| Time | Temp. | Humidity | Pressure | Rain* | Wind** | Luminosity | Snow |
|---|---|---|---|---|---|---|---|
| 1777487550 | 19.44° C | 37% | 1018 hPa | 0 mm | - | 5 W/m² | - |
| 1777486950 | 19.44° C | 36% | 1017.8 hPa | 0 mm | - | 9 W/m² | - |
| 1777486351 | 20° C | 37% | 1017.6 hPa | 0 mm | - | 11 W/m² | - |
| 1777485151 | 20.56° C | 37% | 1017.4 hPa | 0 mm | - | 16 W/m² | - |
| 1777484550 | 20.56° C | 36% | 1017.3 hPa | 0 mm | - | 19 W/m² | - |
| 1777483952 | 21.11° C | 35% | 1017.3 hPa | 0 mm | - | 21 W/m² | - |
| 1777483350 | 21.11° C | 33% | 1017.2 hPa | 0 mm | - | 21 W/m² | - |
| 1777482750 | 21.67° C | 34% | 1017 hPa | 0 mm | - | 25 W/m² | - |
| 1777481549 | 21.67° C | 33% | 1016.9 hPa | 0 mm | - | 26 W/m² | - |
| 1777480950 | 22.22° C | 32% | 1017 hPa | 0 mm | - | 28 W/m² | - |
| 1777480349 | 22.22° C | 32% | 1016.8 hPa | 0 mm | - | 30 W/m² | - |
| 1777479750 | 22.22° C | 32% | 1016.9 hPa | 0 mm | - | 30 W/m² | - |
| 1777479149 | 22.22° C | 32% | 1016.8 hPa | 0 mm | - | 33 W/m² | - |
| 1777477950 | 22.22° C | 34% | 1016.8 hPa | 0 mm | - | 37 W/m² | - |
| 1777477350 | 22.78° C | 33% | 1016.8 hPa | 0 mm | - | 37 W/m² | - |
| 1777476750 | 22.78° C | 33% | 1016.8 hPa | 0 mm | - | 39 W/m² | - |
| 1777476150 | 22.78° C | 34% | 1016.9 hPa | 0 mm | - | 40 W/m² | - |
| 1777475550 | 22.78° C | 34% | 1016.8 hPa | 0 mm | - | 40 W/m² | - |
| 1777474350 | 23.33° C | 34% | 1016.8 hPa | 0 mm | - | 46 W/m² | - |
| 1777473750 | 23.33° C | 34% | 1016.8 hPa | 0 mm | - | 47 W/m² | - |
| 1777473150 | 23.33° C | 34% | 1016.9 hPa | 0 mm | - | 49 W/m² | - |
* Rain latest hour (hover to see other rain measurements)
** Current wind speed in m/s (hover to see current wind gust speed)